Weather reports worldwide

Advertisment
Huelva, Spain (8383): temperature & dewpoint: 08.10.2019 13:00:00 - 14.10.2019 13:00:00 (CEST)Huelva, Spain (8383): wind speed: 08.10.2019 13:00:00 - 14.10.2019 13:00:00 (CEST)Huelva, Spain (8383): wind direction: 08.10.2019 13:00:00 - 14.10.2019 13:00:00 (CEST)Huelva, Spain (8383): reduced air pressure: 08.10.2019 13:00:00 - 14.10.2019 13:00:00 (CEST)Huelva, Spain (8383): visibility: 08.10.2019 13:00:00 - 14.10.2019 13:00:00 (CEST)Huelva, Spain (8383): precipitation: 08.10.2019 13:00:00 - 14.10.2019 13:00:00 (CEST)
Date & Time tt [°C] td [°C] ff [km/h] ff [kn] dd ppp [hPa] vv [km] rr [mm]
14.10.2019 13:00:00 21,2 12,9 16 9 W 1017,7 20 0,0
14.10.2019 12:00:00 20,4 14,7 9 5 W 1017,6 20 0,0
14.10.2019 11:00:00 18,4 14,9 11 6 WNW 1017,4 18 -
14.10.2019 10:00:00 17,7 15,9 21 11 WNW 1016,6 20 0,0
14.10.2019 09:00:00 16,6 15,8 9 5 WNW 1015,8 20 0,0
14.10.2019 08:00:00 17,3 16,0 13 7 WNW 1015,0 15 -
14.10.2019 07:00:00 18,1 16,9 13 7 SW 1014,0 20 0,0
14.10.2019 06:00:00 17,2 16,1 11 6 SSW 1013,5 20 5,0
14.10.2019 05:00:00 20,1 17,9 11 6 SSW 1013,0 19 -
14.10.2019 04:00:00 19,7 17,8 11 6 SW 1013,4 20 0,0
14.10.2019 03:00:00 19,1 17,6 13 7 WSW 1013,0 16 0,0
14.10.2019 02:00:00 18,9 17,0 11 6 WSW 1012,9 15 -
14.10.2019 01:00:00 18,8 16,6 9 5 W 1013,3 18 0,0
14.10.2019 00:00:00 18,8 16,2 9 5 W 1013,2 18 0,0
13.10.2019 23:00:00 19,2 15,7 11 6 WNW 1012,7 19 -
13.10.2019 22:00:00 20,1 15,3 9 5 W 1012,6 20 0,0
13.10.2019 21:00:00 21,2 15,3 11 6 W 1012,6 20 0,0
13.10.2019 20:00:00 22,6 15,7 8 4 SW 1012,4 20 -
13.10.2019 19:00:00 24,4 15,6 13 7 WSW 1012,8 20 0,0
13.10.2019 18:00:00 26,4 15,4 11 6 SSW 1012,9 20 0,0
13.10.2019 17:00:00 26,4 17,2 11 6 SW 1013,1 19 -
13.10.2019 16:00:00 26,6 15,9 15 8 S 1013,6 20 0,0
13.10.2019 15:00:00 26,0 16,8 15 8 SSW 1014,5 20 0,0
13.10.2019 14:00:00 26,0 16,3 13 7 S 1015,3 20 -
13.10.2019 13:00:00 24,9 15,8 11 6 SSE 1016,0 20 0,0
13.10.2019 12:00:00 22,0 17,1 9 5 E 1016,2 20 0,0
13.10.2019 11:00:00 18,6 16,6 9 5 ENE 1016,5 16 -
13.10.2019 10:00:00 15,5 15,5 8 4 ENE 1016,6 2,4 0,0
13.10.2019 09:00:00 14,3 14,3 8 4 NNE 1016,3 0,5 0,0
13.10.2019 08:00:00 15,1 14,9 11 6 NE 1016,2 0,2 -
13.10.2019 07:00:00 15,3 15,3 8 4 ENE 1015,9 0,6 0,0
13.10.2019 06:00:00 15,2 14,9 9 5 NE 1015,7 0,2 0,0
13.10.2019 05:00:00 15,5 15,0 8 4 NE 1015,7 4,8 -
13.10.2019 04:00:00 16,0 15,0 5 3 NE 1015,8 7 0,0
13.10.2019 03:00:00 16,9 16,1 8 4 NE 1016,1 8 0,0
13.10.2019 02:00:00 18,0 16,7 5 3 NE 1016,3 11 -
13.10.2019 01:00:00 19,1 17,4 11 6 W 1016,5 13 0,0
13.10.2019 00:00:00 19,5 17,5 13 7 WSW 1016,5 15 0,0
12.10.2019 23:00:00 19,9 17,3 16 9 WSW 1016,1 18 -
12.10.2019 22:00:00 20,0 17,0 21 11 WSW 1015,4 19 0,0
12.10.2019 21:00:00 20,3 17,1 15 8 SW 1015,4 18 0,0
12.10.2019 20:00:00 21,2 18,0 16 9 SW 1014,9 17 -
12.10.2019 19:00:00 23,1 19,1 15 8 SW 1014,7 14 0,0
12.10.2019 18:00:00 24,7 18,9 18 10 S 1014,5 19 0,0
12.10.2019 17:00:00 24,9 18,8 24 13 S 1014,8 18 -
12.10.2019 16:00:00 25,5 18,7 22 12 S 1014,8 19 0,0
12.10.2019 15:00:00 25,0 18,7 16 9 S 1015,5 20 0,0
12.10.2019 14:00:00 25,1 17,8 13 7 SSW 1015,8 20 -
12.10.2019 13:00:00 25,6 17,8 21 11 S 1016,2 20 0,0
12.10.2019 12:00:00 24,4 17,4 11 6 SW 1016,5 20 0,0
12.10.2019 11:00:00 23,5 17,9 2 1 WNW 1015,8 19 -
12.10.2019 10:00:00 21,1 17,7 2 1 E 1015,3 17 0,0
12.10.2019 09:00:00 18,8 17,1 2 1 W 1014,9 14 0,0
12.10.2019 08:00:00 18,9 17,0 2 1 NNE 1015,0 14 -
12.10.2019 07:00:00 20,1 17,9 8 4 NW 1014,9 16 0,0
12.10.2019 06:00:00 20,3 17,9 9 5 NNW 1014,6 16 0,0
12.10.2019 05:00:00 20,7 17,1 4 2 WNW 1014,9 19 -
12.10.2019 04:00:00 21,1 17,5 4 2 W 1015,4 19 0,0
12.10.2019 03:00:00 21,3 17,7 4 2 SSE 1015,6 19 0,0
12.10.2019 02:00:00 21,0 17,8 9 5 ESE 1016,2 16 -
12.10.2019 01:00:00 21,0 17,4 2 1 N 1016,6 16 0,0
12.10.2019 00:00:00 21,3 18,1 4 2 ENE 1016,9 15 0,0
11.10.2019 23:00:00 21,8 18,4 8 4 S 1017,3 15 -
11.10.2019 22:00:00 22,3 18,5 8 4 SW 1017,0 16 0,0
11.10.2019 21:00:00 22,2 18,2 5 3 E 1016,1 17 0,0
11.10.2019 20:00:00 23,1 18,0 9 5 SW 1016,5 19 -
11.10.2019 19:00:00 24,1 17,6 13 7 SW 1016,2 20 0,0
11.10.2019 18:00:00 27,1 16,7 15 8 SSW 1016,1 20 0,0
11.10.2019 17:00:00 27,1 16,4 9 5 SSW 1016,2 20 -
11.10.2019 16:00:00 26,9 15,6 16 9 S 1017,0 20 0,0
11.10.2019 15:00:00 27,1 14,5 13 7 S 1017,5 20 0,0
11.10.2019 14:00:00 27,0 15,1 9 5 SW 1018,3 12 -
11.10.2019 13:00:00 25,4 14,8 5 3 ENE 1018,6 20 0,0
11.10.2019 12:00:00 24,3 15,8 4 2 S 1018,9 20 0,0
11.10.2019 11:00:00 23,0 15,3 9 5 NE 1018,9 10 -
11.10.2019 10:00:00 18,9 14,0 4 2 NE 1018,4 16 0,0
11.10.2019 09:00:00 17,6 13,5 5 3 NNE 1017,7 19 0,0
11.10.2019 08:00:00 17,5 13,2 4 2 NE 1017,6 20 -
11.10.2019 07:00:00 17,4 13,1 5 3 NE 1017,5 20 0,0
11.10.2019 06:00:00 18,4 14,5 5 3 NNE 1017,4 20 0,0
11.10.2019 05:00:00 18,3 14,2 5 3 NE 1017,3 20 -
11.10.2019 04:00:00 18,4 13,7 5 3 NE 1017,2 20 0,0
11.10.2019 03:00:00 18,7 13,8 8 4 NNE 1017,5 20 0,0
11.10.2019 02:00:00 19,6 14,2 8 4 N 1017,6 20 -
11.10.2019 01:00:00 21,1 15,6 9 5 NW 1017,5 20 0,0
11.10.2019 00:00:00 21,4 15,5 5 3 WNW 1017,7 20 0,0
10.10.2019 23:00:00 22,3 15,6 2 1 S 1017,3 20 -
10.10.2019 22:00:00 22,9 15,7 5 3 SW 1016,8 20 0,0
10.10.2019 21:00:00 23,5 15,5 5 3 WSW 1016,4 20 0,0
10.10.2019 20:00:00 24,8 15,7 11 6 SW 1015,8 20 -
10.10.2019 19:00:00 27,0 16,0 16 9 S 1015,7 20 0,0
10.10.2019 18:00:00 28,3 15,6 18 10 S 1015,7 20 0,0
10.10.2019 17:00:00 29,4 14,4 16 9 S 1015,8 20 -
10.10.2019 16:00:00 29,6 12,1 13 7 SW 1015,9 20 0,0
10.10.2019 15:00:00 28,9 11,0 15 8 WSW 1016,5 20 0,0
10.10.2019 14:00:00 28,5 11,1 9 5 SW 1017,2 15 -
10.10.2019 13:00:00 26,9 11,8 5 3 SSE 1017,8 20 0,0
10.10.2019 12:00:00 25,3 11,1 8 4 SSE 1018,1 20 0,0
10.10.2019 11:00:00 22,0 11,4 8 4 N 1018,1 9 -
10.10.2019 10:00:00 18,8 9,6 4 2 N 1017,5 20 0,0
10.10.2019 09:00:00 16,7 8,1 8 4 N 1016,6 20 0,0
10.10.2019 08:00:00 16,5 8,9 4 2 N 1016,4 18 -
10.10.2019 07:00:00 18,0 7,1 11 6 NNW 1016,0 20 0,0
10.10.2019 06:00:00 18,0 7,7 4 2 N 1016,0 20 0,0
10.10.2019 05:00:00 19,0 7,4 15 8 NW 1015,4 20 -
10.10.2019 04:00:00 20,3 7,0 8 4 N 1015,6 20 0,0
10.10.2019 03:00:00 21,0 6,9 15 8 NW 1015,5 20 0,0
10.10.2019 02:00:00 21,3 6,4 11 6 NW 1015,5 20 -
10.10.2019 01:00:00 22,0 7,8 11 6 WNW 1015,6 20 0,0
10.10.2019 00:00:00 21,0 10,8 8 4 WNW 1015,5 20 0,0
09.10.2019 23:00:00 20,9 14,8 5 3 W 1015,4 18 -
09.10.2019 22:00:00 21,4 15,5 4 2 SSE 1015,3 20 0,0
09.10.2019 21:00:00 23,1 14,1 8 4 WSW 1015,1 20 0,0
09.10.2019 20:00:00 24,2 14,0 11 6 SW 1014,9 20 -
09.10.2019 19:00:00 26,7 11,6 15 8 SW 1014,8 20 0,0
09.10.2019 18:00:00 29,4 13,6 13 7 SSW 1014,5 20 0,0
09.10.2019 17:00:00 30,4 15,3 16 9 SW 1014,8 20 -
09.10.2019 16:00:00 30,9 15,7 15 8 SW 1015,2 20 0,0
09.10.2019 15:00:00 30,1 16,1 9 5 S 1015,4 20 0,0
09.10.2019 14:00:00 28,8 15,7 5 3 SSE 1016,3 10 -
09.10.2019 13:00:00 26,7 15,4 9 5 E 1016,9 20 0,0
09.10.2019 12:00:00 24,0 15,8 8 4 NNW 1017,2 20 0,0
09.10.2019 11:00:00 21,5 15,8 9 5 N 1017,0 20 -
09.10.2019 10:00:00 19,5 15,4 8 4 N 1016,9 20 0,0
09.10.2019 09:00:00 16,8 14,1 2 1 WNW 1016,3 20 0,0
09.10.2019 08:00:00 17,9 15,3 5 3 WNW 1015,9 15 -
09.10.2019 07:00:00 18,3 14,6 4 2 WNW 1015,7 20 0,0
09.10.2019 06:00:00 17,0 14,5 5 3 WNW 1015,4 16 0,0
09.10.2019 05:00:00 17,6 14,7 2 1 WNW 1015,5 16 -
09.10.2019 04:00:00 18,3 15,9 2 1 NE 1015,6 11 0,0
09.10.2019 03:00:00 18,9 16,3 2 1 NNE 1016,1 11 0,0
09.10.2019 02:00:00 19,0 15,9 2 1 NNW 1016,3 14 -
09.10.2019 01:00:00 19,9 14,9 2 1 ENE 1016,8 19 0,0
09.10.2019 00:00:00 20,6 15,8 4 2 W 1017,0 19 0,0
08.10.2019 23:00:00 21,8 16,1 2 1 NNE 1016,9 20 -
08.10.2019 22:00:00 22,6 16,6 9 5 W 1016,4 19 0,0
08.10.2019 21:00:00 23,5 16,5 13 7 WSW 1016,1 20 0,0
08.10.2019 20:00:00 25,0 16,4 13 7 SW 1015,8 20 -
08.10.2019 19:00:00 27,6 15,9 9 5 SW 1015,6 20 0,0
08.10.2019 18:00:00 28,8 16,0 13 7 SSW 1015,7 20 0,0
08.10.2019 17:00:00 28,0 16,0 16 9 SW 1016,0 20 -
08.10.2019 16:00:00 29,2 15,0 16 9 SSW 1016,1 20 0,0
08.10.2019 15:00:00 30,0 13,7 15 8 S 1016,5 20 0,0
08.10.2019 14:00:00 29,8 13,5 11 6 SSW 1017,1 12 -
08.10.2019 13:00:00 28,9 13,2 8 4 WSW 1017,6 20 0,0

tt = temperature
td = dewpoint
ff = wind speed
dd = wind direction
ppp = reduced air pressure
vv = visibility
rr = precipitation

Next stations